FW3706 Weather Reports


Display with metric or nautical units.
time (UTC)temp
F
wind
direction
speed
MPH
gust
MPH
rain 1hr
in
rain 24hr
in
rain mn
in
humidity
%
barometer
mb
20260510102010 73 91 0.0 3.0 0.00 0.00 0.00 23 1012.4
20260510101519 73 96 0.0 3.0 0.00 0.00 0.00 23 1012.4
20260510101014 73 96 0.0 2.0 0.00 0.00 0.00 23 1012.4
20260510100507 73 96 0.0 0.0 0.00 0.00 0.00 22 1012.4
20260510100016 73 96 0.0 0.0 0.00 0.00 0.00 22 1012.3
20260510095508 73 96 0.0 0.0 0.00 0.00 0.00 22 1012.3
20260510095011 72 91 0.0 1.0 0.00 0.00 0.00 23 1012.3
20260510094519 72 360 0.0 2.0 0.00 0.00 0.00 23 1012.3
20260510094007 72 360 1.0 2.0 0.00 0.00 0.00 24 1012.3
20260510093512 72 96 0.0 2.0 0.00 0.00 0.00 24 1012.3
20260510093016 72 360 0.0 2.0 0.00 0.00 0.00 24 1012.2
20260510092507 72 360 0.0 2.0 0.00 0.00 0.00 24 1012.2
20260510092010 73 360 0.0 2.0 0.00 0.00 0.00 23 1012.2
20260510091525 73 99 0.0 3.0 0.00 0.00 0.00 23 1012.2
20260510091009 74 96 1.0 3.0 0.00 0.00 0.00 22 1012.2
20260510090511 75 96 0.0 3.0 0.00 0.00 0.00 21 1012.1
20260510090022 75 5 0.0 3.0 0.00 0.00 0.00 19 1012.1
20260510085511 76 2 0.0 3.0 0.00 0.00 0.00 19 1012.1
20260510085010 77 1 0.0 2.0 0.00 0.00 0.00 18 1012.0
20260510084534 78 2 0.0 2.0 0.00 0.00 0.00 18 1012.0
20260510084010 78 360 0.0 4.0 0.00 0.00 0.00 17 1012.0
20260510083509 79 1 0.0 4.0 0.00 0.00 0.00 16 1012.0
20260510083020 79 1 0.0 3.0 0.00 0.00 0.00 16 1011.9
20260510082508 80 1 0.0 4.0 0.00 0.00 0.00 16 1011.9
20260510082010 80 360 0.0 5.0 0.00 0.00 0.00 16 1011.9
20260510081529 80 360 2.0 5.0 0.00 0.00 0.00 15 1011.9
20260510081007 80 1 2.0 5.0 0.00 0.00 0.00 15 1011.9
20260510080508 80 10 2.0 5.0 0.00 0.00 0.00 15 1011.8
20260510080004 80 1 2.0 6.0 0.00 0.00 0.00 15 1011.9
20260510075500 80 1 3.0 6.0 0.00 0.00 0.00 15 1011.9
20260510075002 81 1 2.0 6.0 0.00 0.00 0.00 16 1012.0
20260510074505 81 1 2.0 6.0 0.00 0.00 0.00 15 1012.0
20260510074004 81 1 2.0 8.0 0.00 0.00 0.00 15 1012.0
20260510073503 81 1 4.0 8.0 0.00 0.00 0.00 15 1012.0
20260510073003 81 10 3.0 6.0 0.00 0.00 0.00 15 1012.0
20260510072504 81 10 3.0 6.0 0.00 0.00 0.00 16 1012.0
20260510072005 80 360 3.0 7.0 0.00 0.00 0.00 16 1012.0
20260510071505 80 1 3.0 7.0 0.00 0.00 0.00 16 1012.0
20260510071003 80 1 3.0 5.0 0.00 0.00 0.00 16 1012.0
20260510070503 81 10 3.0 6.0 0.00 0.00 0.00 16 1012.0
20260510070008 81 360 3.0 6.0 0.00 0.00 0.00 16 1012.0
20260510065503 82 10 2.0 5.0 0.00 0.00 0.00 15 1012.0
20260510065001 82 10 2.0 5.0 0.00 0.00 0.00 15 1012.0
20260510064506 83 9 1.0 8.0 0.00 0.00 0.00 15 1011.9
20260510064004 83 8 3.0 8.0 0.00 0.00 0.00 15 1011.9
20260510063504 82 8 3.0 8.0 0.00 0.00 0.00 15 1011.9
20260510063007 82 9 2.0 7.0 0.00 0.00 0.00 15 1011.8
20260510062504 82 8 2.0 7.0 0.00 0.00 0.00 15 1011.8
20260510062004 82 9 4.0 7.0 0.00 0.00 0.00 15 1011.8
20260510061510 82 9 3.0 7.0 0.00 0.00 0.00 15 1011.7
20260510061004 81 9 3.0 7.0 0.00 0.00 0.00 16 1011.7
20260510060504 81 9 2.0 7.0 0.00 0.00 0.00 16 1011.6
20260510060006 80 9 2.0 5.0 0.00 0.00 0.00 17 1011.6
20260510055501 80 8 2.0 5.0 0.00 0.00 0.00 17 1011.5
20260510055001 80 8 1.0 4.0 0.00 0.00 0.00 18 1011.5
20260510054505 81 8 2.0 4.0 0.00 0.00 0.00 17 1011.5
20260510054003 81 9 2.0 4.0 0.00 0.00 0.00 16 1011.2
20260510053503 81 8 1.0 4.0 0.00 0.00 0.00 17 1011.2
20260510053009 81 9 1.0 4.0 0.00 0.00 0.00 17 1011.1
20260510052504 81 9 1.0 4.0 0.00 0.00 0.00 17 1011.1
20260510052004 81 9 2.0 4.0 0.00 0.00 0.00 17 1011.0
20260510051509 81 9 1.0 4.0 0.00 0.00 0.00 17 1010.9
20260510051006 81 10 1.0 4.0 0.00 0.00 0.00 17 1010.9
20260510050504 81 9 1.0 4.0 0.00 0.00 0.00 17 1010.9
20260510050008 81 9 1.0 4.0 0.00 0.00 0.00 17 1010.8
20260510045504 81 9 1.0 4.0 0.00 0.00 0.00 17 1010.8
20260510045004 81 9 1.0 4.0 0.00 0.00 0.00 17 1010.8
20260510044507 81 9 1.0 4.0 0.00 0.00 0.00 17 1010.7
20260510044007 81 9 1.0 2.0 0.00 0.00 0.00 17 1010.7
20260510043504 82 9 0.0 2.0 0.00 0.00 0.00 16 1010.6
20260510043008 82 9 0.0 2.0 0.00 0.00 0.00 16 1010.6
20260510042506 82 9 0.0 3.0 0.00 0.00 0.00 16 1010.5
20260510042003 82 9 0.0 4.0 0.00 0.00 0.00 16 1010.4
20260510041510 82 9 1.0 4.0 0.00 0.00 0.00 16 1010.4
20260510041004 82 10 1.0 4.0 0.00 0.00 0.00 16 1010.3
20260510040504 83 10 1.0 3.0 0.00 0.00 0.00 16 1010.3
20260510040010 84 10 0.0 3.0 0.00 0.00 0.00 15 1010.2
20260510035504 84 10 0.0 3.0 0.00 0.00 0.00 14 1010.2
20260510035005 84 10 0.0 3.0 0.00 0.00 0.00 14 1010.1
20260510034508 84 10 0.0 4.0 0.00 0.00 0.00 15 1010.0
20260510034005 84 10 0.0 4.0 0.00 0.00 0.00 14 1009.9
20260510033507 85 10 0.0 2.0 0.00 0.00 0.00 14 1009.9
20260510033008 86 10 0.0 2.0 0.00 0.00 0.00 14 1009.8
20260510032504 86 10 0.0 2.0 0.00 0.00 0.00 13 1009.7
20260510032007 87 10 1.0 3.0 0.00 0.00 0.00 13 1009.5
20260510031508 87 10 0.0 3.0 0.00 0.00 0.00 12 1009.4
20260510031004 88 10 0.0 4.0 0.00 0.00 0.00 12 1009.3
20260510030504 88 10 1.0 4.0 0.00 0.00 0.00 12 1009.2
20260510030012 88 10 1.0 4.0 0.00 0.00 0.00 12 1009.2
20260510025505 89 10 1.0 5.0 0.00 0.00 0.00 12 1009.1
20260510025006 89 10 2.0 5.0 0.00 0.00 0.00 11 1009.0
20260510024512 90 10 1.0 4.0 0.00 0.00 0.00 11 1008.9
20260510024004 90 10 2.0 4.0 0.00 0.00 0.00 11 1008.9
20260510023505 90 9 1.0 4.0 0.00 0.00 0.00 11 1008.9
20260510023008 91 9 1.0 4.0 0.00 0.00 0.00 11 1008.9
20260510022504 91 9 1.0 4.0 0.00 0.00 0.00 10 1008.8
20260510022008 92 9 1.0 4.0 0.00 0.00 0.00 10 1008.9
20260510021514 92 9 1.0 5.0 0.00 0.00 0.00 10 1008.8
20260510021004 93 8 2.0 5.0 0.00 0.00 0.00 10 1008.8
20260510020504 93 9 2.0 6.0 0.00 0.00 0.00 9 1008.7
20260510020012 94 321 2.0 7.0 0.00 0.00 0.00 9 1008.5
20260510015505 94 331 3.0 7.0 0.00 0.00 0.00 9 1008.5
20260510015003 95 355 4.0 7.0 0.00 0.00 0.00 9 1008.5
20260510014513 95 344 2.0 6.0 0.00 0.00 0.00 9 1008.5
20260510014004 96 345 1.0 7.0 0.00 0.00 0.00 9 1008.5
20260510013504 96 328 2.0 7.0 0.00 0.00 0.00 9 1008.5
20260510013012 96 319 3.0 8.0 0.00 0.00 0.00 9 1008.5
20260510012503 96 340 3.0 8.0 0.00 0.00 0.00 9 1008.5
20260510012009 96 325 3.0 10.0 0.00 0.00 0.00 9 1008.5
20260510011513 96 290 5.0 11.0 0.00 0.00 0.00 9 1008.5
20260510011006 96 330 6.0 11.0 0.00 0.00 0.00 9 1008.5
20260510010504 97 338 6.0 11.0 0.00 0.00 0.00 9 1008.5
20260510010013 97 293 4.0 12.0 0.00 0.00 0.00 8 1008.5
20260510005503 97 309 5.0 12.0 0.00 0.00 0.00 8 1008.5
20260510005006 97 304 2.0 12.0 0.00 0.00 0.00 9 1008.5
20260510004513 97 292 5.0 12.0 0.00 0.00 0.00 8 1008.5
20260510004004 97 338 6.0 12.0 0.00 0.00 0.00 8 1008.5
20260510003507 98 295 4.0 12.0 0.00 0.00 0.00 8 1008.5
20260510003014 98 313 6.0 11.0 0.00 0.00 0.00 8 1008.5
20260510002504 98 324 4.0 9.0 0.00 0.00 0.00 8 1008.6
20260510002011 98 324 4.0 10.0 0.00 0.00 0.00 8 1008.7
20260510001516 98 332 6.0 12.0 0.00 0.00 0.00 8 1008.6
20260510001004 98 282 4.0 12.0 0.00 0.00 0.00 8 1008.6
20260510000505 98 266 8.0 13.0 0.00 0.00 0.00 8 1008.7
20260510000016 99 359 7.0 13.0 0.00 0.00 0.00 8 1008.7
20260509235507 99 294 4.0 11.0 0.00 0.00 0.00 8 1008.7
20260509235005 99 319 6.0 11.0 0.00 0.00 0.00 8 1008.7
20260509234528 98 321 3.0 11.0 0.00 0.00 0.00 8 1008.7
20260509234007 99 321 4.0 9.0 0.00 0.00 0.00 8 1008.8
20260509233504 100 359 3.0 6.0 0.00 0.00 0.00 8 1008.9
20260509233014 100 330 2.0 8.0 0.00 0.00 0.00 8 1008.9
20260509232504 100 266 4.0 11.0 0.00 0.00 0.00 8 1008.9
20260509232004 99 262 6.0 13.0 0.00 0.00 0.00 8 1009.0
20260509231516 99 327 7.0 13.0 0.00 0.00 0.00 8 1009.0
20260509231004 100 335 0.0 11.0 0.00 0.00 0.00 8 1009.0
20260509230506 100 311 5.0 11.0 0.00 0.00 0.00 9 1009.0
20260509230016 100 345 3.0 9.0 0.00 0.00 0.00 8 1009.1
20260509225505 99 235 2.0 14.0 0.00 0.00 0.00 8 1009.2
20260509225004 99 310 4.0 14.0 0.00 0.00 0.00 8 1009.3
20260509224516 100 281 1.0 11.0 0.00 0.00 0.00 8 1009.4
20260509224007 99 319 4.0 11.0 0.00 0.00 0.00 8 1009.4
20260509223504 100 233 3.0 9.0 0.00 0.00 0.00 8 1009.5
20260509223017 99 242 4.0 9.0 0.00 0.00 0.00 9 1009.5
20260509222503 99 257 2.0 9.0 0.00 0.00 0.00 9 1009.6
20260509222002 99 5 3.0 9.0 0.00 0.00 0.00 9 1009.7
20260509221515 99 276 4.0 9.0 0.00 0.00 0.00 8 1009.7
20260509221004 100 243 4.0 9.0 0.00 0.00 0.00 8 1009.8
20260509220501 99 359 1.0 9.0 0.00 0.00 0.00 8 1009.9
20260509220017 98 294 5.0 10.0 0.00 0.00 0.00 9 1010.0
20260509215508 99 341 3.0 10.0 0.00 0.00 0.00 8 1010.1
20260509215001 99 319 5.0 13.0 0.00 0.00 0.00 9 1010.2
20260509214515 99 209 4.0 14.0 0.00 0.00 0.00 9 1010.2
20260509214008 99 320 4.0 14.0 0.00 0.00 0.00 9 1010.3
20260509213502 98 250 0.0 8.0 0.00 0.00 0.00 9 1010.4
20260509213016 98 263 4.0 9.0 0.00 0.00 0.00 9 1010.5
20260509212503 98 253 2.0 9.0 0.00 0.00 0.00 9 1010.6
20260509212002 98 293 3.0 11.0 0.00 0.00 0.00 8 1010.7
20260509211516 98 348 3.0 11.0 0.00 0.00 0.00 9 1010.7
20260509211004 98 326 5.0 10.0 0.00 0.00 0.00 9 1010.8
20260509210501 98 273 4.0 9.0 0.00 0.00 0.00 9 1010.8
20260509210014 97 287 4.0 9.0 0.00 0.00 0.00 9 1011.0
20260509205501 97 319 2.0 12.0 0.00 0.00 0.00 9 1011.0
20260509205001 98 310 6.0 12.0 0.00 0.00 0.00 9 1011.0
20260509204517 98 300 5.0 9.0 0.00 0.00 0.00 9 1011.1
20260509204005 97 262 4.0 9.0 0.00 0.00 0.00 10 1011.2
20260509203508 97 309 4.0 12.0 0.00 0.00 0.00 9 1011.3
20260509203014 96 262 4.0 12.0 0.00 0.00 0.00 10 1011.4
20260509202505 97 309 5.0 10.0 0.00 0.00 0.00 9 1011.4
20260509202009 97 309 2.0 10.0 0.00 0.00 0.00 10 1011.6
20260509201516 96 275 4.0 10.0 0.00 0.00 0.00 10 1011.6
20260509201004 97 342 4.0 9.0 0.00 0.00 0.00 10 1011.7
20260509200511 97 247 4.0 11.0 0.00 0.00 0.00 10 1011.8
20260509200016 96 289 5.0 11.0 0.00 0.00 0.00 10 1011.9
20260509195507 96 326 3.0 12.0 0.00 0.00 0.00 10 1011.9
20260509195007 95 288 5.0 12.0 0.00 0.00 0.00 10 1011.9
20260509194522 96 260 7.0 12.0 0.00 0.00 0.00 10 1012.0
20260509194003 96 351 7.0 12.0 0.00 0.00 0.00 10 1012.1
20260509193512 96 316 4.0 12.0 0.00 0.00 0.00 10 1012.2
20260509193016 95 327 7.0 12.0 0.00 0.00 0.00 10 1012.2
20260509192505 95 298 4.0 10.0 0.00 0.00 0.00 10 1012.2
20260509192011 96 316 6.0 10.0 0.00 0.00 0.00 10 1012.2
20260509191513 95 335 3.0 12.0 0.00 0.00 0.00 11 1012.3
20260509191006 96 269 4.0 12.0 0.00 0.00 0.00 11 1012.4
20260509190509 94 266 3.0 10.0 0.00 0.00 0.00 12 1012.5
20260509190016 95 281 4.0 10.0 0.00 0.00 0.00 12 1012.5
20260509185504 94 301 4.0 12.0 0.00 0.00 0.00 12 1012.5
20260509185010 94 349 4.0 12.0 0.00 0.00 0.00 12 1012.6
20260509184520 93 291 4.0 9.0 0.00 0.00 0.00 12 1012.6
20260509184004 94 280 5.0 9.0 0.00 0.00 0.00 12 1012.7
20260509183508 93 341 1.0 11.0 0.00 0.00 0.00 12 1012.9
20260509183015 93 304 2.0 11.0 0.00 0.00 0.00 13 1012.9
20260509182503 92 238 3.0 10.0 0.00 0.00 0.00 13 1013.0
20260509182006 93 278 5.0 11.0 0.00 0.00 0.00 12 1013.0
20260509181516 92 1 2.0 11.0 0.00 0.00 0.00 13 1013.1
20260509181004 93 319 6.0 11.0 0.00 0.00 0.00 12 1013.1
20260509180508 92 339 1.0 7.0 0.00 0.00 0.00 12 1013.2
20260509180021 91 263 1.0 7.0 0.00 0.00 0.00 13 1013.3
20260509175504 91 330 3.0 6.0 0.00 0.00 0.00 14 1013.4
20260509175009 91 328 3.0 6.0 0.00 0.00 0.00 14 1013.4
20260509174514 90 245 3.0 7.0 0.00 0.00 0.00 14 1013.4
20260509174003 91 278 3.0 7.0 0.00 0.00 0.00 14 1013.4
20260509173507 90 282 0.0 5.0 0.00 0.00 0.00 15 1013.4
20260509173016 90 276 0.0 5.0 0.00 0.00 0.00 15 1013.5
20260509172504 90 271 1.0 6.0 0.00 0.00 0.00 15 1013.5
20260509172006 89 302 2.0 6.0 0.00 0.00 0.00 15 1013.6
20260509171516 89 232 2.0 6.0 0.00 0.00 0.00 16 1013.6
20260509171003 88 259 1.0 7.0 0.00 0.00 0.00 17 1013.6
20260509170507 88 238 3.0 7.0 0.00 0.00 0.00 17 1013.7
20260509170014 87 249 2.0 5.0 0.00 0.00 0.00 17 1013.7
20260509165503 87 243 2.0 5.0 0.00 0.00 0.00 18 1013.7
20260509165009 86 229 0.0 4.0 0.00 0.00 0.00 19 1013.8
20260509164515 86 225 0.0 4.0 0.00 0.00 0.00 19 1013.8
20260509164004 85 228 1.0 4.0 0.00 0.00 0.00 19 1013.8
20260509163510 85 214 2.0 4.0 0.00 0.00 0.00 20 1013.8
20260509163020 85 213 0.0 3.0 0.00 0.00 0.00 20 1013.9
20260509162503 84 212 0.0 4.0 0.00 0.00 0.00 20 1013.9
20260509162010 84 210 1.0 4.0 0.00 0.00 0.00 21 1013.9
20260509161515 83 188 1.0 4.0 0.00 0.00 0.00 21 1014.0
20260509161005 83 178 0.0 5.0 0.00 0.00 0.00 22 1013.9
20260509160507 82 179 1.0 5.0 0.00 0.00 0.00 22 1013.9
20260509160014 82 175 0.0 4.0 0.00 0.00 0.00 23 1014.0
20260509155502 81 175 1.0 4.0 0.00 0.00 0.00 24 1014.0
20260509155007 81 167 1.0 5.0 0.00 0.00 0.00 24 1014.0
20260509154516 80 162 1.0 5.0 0.00 0.00 0.00 24 1014.0
20260509154011 80 156 1.0 4.0 0.00 0.00 0.00 25 1014.0
20260509153509 79 155 1.0 3.0 0.00 0.00 0.00 26 1014.0
20260509153015 79 156 1.0 4.0 0.00 0.00 0.00 27 1014.0
20260509152510 78 156 0.0 4.0 0.00 0.00 0.00 28 1014.0
20260509152016 78 143 1.0 3.0 0.00 0.00 0.00 28 1014.0
20260509151516 77 139 0.0 3.0 0.00 0.00 0.00 28 1014.1
20260509151010 77 84 0.0 4.0 0.00 0.00 0.00 28 1014.1
20260509150508 76 15 1.0 4.0 0.00 0.00 0.00 28 1014.0
20260509150019 76 360 0.0 5.0 0.00 0.00 0.00 28 1014.1
20260509145507 76 11 0.0 5.0 0.00 0.00 0.00 29 1014.2
20260509145007 75 10 1.0 4.0 0.00 0.00 0.00 29 1014.2
20260509144518 75 360 1.0 5.0 0.00 0.00 0.00 30 1014.2
20260509144007 74 360 1.0 5.0 0.00 0.00 0.00 30 1014.2
20260509143511 73 360 1.0 5.0 0.00 0.00 0.00 30 1014.2
20260509143014 73 360 1.0 5.0 0.00 0.00 0.00 31 1014.2
20260509142507 72 360 1.0 6.0 0.00 0.00 0.00 31 1014.1
20260509142007 72 360 1.0 6.0 0.00 0.00 0.00 31 1014.0
20260509141531 72 360 1.0 5.0 0.00 0.00 0.00 31 1014.0
20260509141010 71 360 1.0 4.0 0.00 0.00 0.00 31 1013.9
20260509140506 71 360 1.0 4.0 0.00 0.00 0.00 32 1013.9
20260509140024 71 10 1.0 4.0 0.00 0.00 0.00 32 1013.9
20260509135511 70 9 0.0 2.0 0.00 0.00 0.00 33 1013.8
20260509135011 69 8 0.0 3.0 0.00 0.00 0.00 35 1013.8
20260509134514 69 11 0.0 3.0 0.00 0.00 0.00 35 1013.7
20260509134009 68 11 0.0 3.0 0.00 0.00 0.00 36 1013.7
20260509133506 67 11 0.0 3.0 0.00 0.00 0.00 36 1013.6
20260509133016 67 11 0.0 2.0 0.00 0.00 0.00 36 1013.5
20260509132508 66 360 0.0 2.0 0.00 0.00 0.00 36 1013.5
20260509132008 66 360 0.0 2.0 0.00 0.00 0.00 37 1013.5
20260509131513 65 11 0.0 2.0 0.00 0.00 0.00 37 1013.5
20260509131005 64 10 0.0 3.0 0.00 0.00 0.00 38 1013.3
20260509130512 64 8 0.0 3.0 0.00 0.00 0.00 38 1013.3
20260509130016 63 8 0.0 1.0 0.00 0.00 0.00 39 1013.2
20260509125504 63 360 0.0 1.0 0.00 0.00 0.00 40 1013.2
20260509125012 63 12 0.0 1.0 0.00 0.00 0.00 41 1013.1
20260509124515 63 360 0.0 0.0 0.00 0.00 0.00 40 1013.1
20260509124002 63 360 0.0 0.0 0.00 0.00 0.00 40 1013.0
20260509123509 63 360 0.0 0.0 0.00 0.00 0.00 40 1013.0
20260509123012 63 360 0.0 0.0 0.00 0.00 0.00 40 1012.9
20260509122503 63 360 0.0 1.0 0.00 0.00 0.00 39 1012.9
20260509122009 64 360 0.0 2.0 0.00 0.00 0.00 38 1012.9
20260509121515 64 360 0.0 2.0 0.00 0.00 0.00 38 1012.8
20260509121004 64 360 0.0 2.0 0.00 0.00 0.00 38 1012.8
20260509120509 64 360 0.0 2.0 0.00 0.00 0.00 38 1012.6
20260509120018 64 10 0.0 3.0 0.00 0.00 0.00 38 1012.7
20260509115506 64 360 1.0 3.0 0.00 0.00 0.00 38 1012.7
20260509115011 64 360 1.0 4.0 0.00 0.00 0.00 38 1012.7
20260509114517 65 360 1.0 4.0 0.00 0.00 0.00 37 1012.6
20260509114002 65 360 1.0 4.0 0.00 0.00 0.00 37 1012.7
20260509113509 65 360 1.0 3.0 0.00 0.00 0.00 37 1012.7
20260509113015 65 360 0.0 3.0 0.00 0.00 0.00 36 1012.6
20260509112503 65 360 1.0 3.0 0.00 0.00 0.00 37 1012.6
20260509112008 65 360 0.0 2.0 0.00 0.00 0.00 36 1012.6
20260509111526 65 360 0.0 2.0 0.00 0.00 0.00 36 1012.6
20260509111005 66 360 0.0 2.0 0.00 0.00 0.00 35 1012.5
20260509110507 66 360 0.0 2.0 0.00 0.00 0.00 34 1012.5
20260509110015 67 360 0.0 2.0 0.00 0.00 0.00 34 1012.5
20260509105503 67 360 1.0 2.0 0.00 0.00 0.00 33 1012.4
20260509105007 68 360 0.0 2.0 0.00 0.00 0.00 31 1012.4
20260509104525 68 360 0.0 2.0 0.00 0.00 0.00 30 1012.4
20260509104008 69 360 0.0 1.0 0.00 0.00 0.00 30 1012.4
20260509103506 69 360 0.0 2.0 0.00 0.00 0.00 30 1012.4
20260509103016 69 360 0.0 2.0 0.00 0.00 0.00 30 1012.4
20260509102505 69 360 0.0 2.0 0.00 0.00 0.00 30 1012.4